• In Hungary
  • List of Countries
  • For 7 days
  • Water Temperature
  • Satellite Maps
  • Weather Map
  • News
  • Weather Widgets
  • user-avatar
    Login

    Hourly Weather Ravda

    Today, 12 December, Tuesday

    Time Temperature Precipitation Wind Pressure Humidity
    00:00 +7°C° 0 mm 6 mps 764 mmHg 83%
    01:00 +7°C° 0 mm 6 mps 764 mmHg 83%
    02:00 +7°C° 0 mm 5 mps 763 mmHg 87%
    03:00 +7°C° 0 mm 5 mps 763 mmHg 86%
    04:00 +6°C° 0 mm 5 mps 763 mmHg 85%
    05:00 +5°C° 0 mm 6 mps 763 mmHg 84%
    06:00 +6°C° 0 mm 5 mps 763 mmHg 83%
    07:00 +6°C° 0 mm 5 mps 763 mmHg 83%
    08:00 +6°C° 0 mm 4 mps 763 mmHg 81%
    09:00 +7°C° 0 mm 5 mps 763 mmHg 73%
    10:00 +9°C° 0 mm 5 mps 763 mmHg 65%
    11:00 +12°C° 0 mm 5 mps 763 mmHg 58%
    12:00 +12°C° 0 mm 5 mps 763 mmHg 55%
    13:00 +13°C° 0 mm 5 mps 763 mmHg 52%
    14:00 +14°C° 0 mm 5 mps 763 mmHg 49%
    15:00 +13°C° 0 mm 4 mps 763 mmHg 53%
    16:00 +12°C° 0 mm 4 mps 763 mmHg 58%
    17:00 +11°C° 0 mm 3 mps 763 mmHg 62%
    18:00 +11°C° 0 mm 3 mps 764 mmHg 63%
    19:00 +10°C° 0 mm 3 mps 764 mmHg 65%
    20:00 +10°C° 0 mm 3 mps 764 mmHg 66%
    21:00 +10°C° 0 mm 3 mps 764 mmHg 68%
    22:00 +10°C° 0 mm 3 mps 764 mmHg 69%
    23:00 +9°C° 0 mm 3 mps 764 mmHg 71%

    Tomorrow, 13 December, Wednesday

    Time Temperature Precipitation Wind Pressure Humidity
    00:00 +9°C° 0 mm 3 mps 764 mmHg 72%
    01:00 +9°C° 0 mm 3 mps 764 mmHg 74%
    02:00 +9°C° 0 mm 2 mps 764 mmHg 75%
    03:00 +8°C° 0 mm 2 mps 764 mmHg 76%
    04:00 +8°C° 0 mm 2 mps 764 mmHg 77%
    05:00 +8°C° 0 mm 2 mps 763 mmHg 78%
    06:00 +8°C° 0 mm 2 mps 763 mmHg 79%
    07:00 +8°C° 0 mm 2 mps 763 mmHg 80%
    08:00 +8°C° 0 mm 3 mps 763 mmHg 80%
    09:00 +9°C° 0 mm 3 mps 764 mmHg 75%
    10:00 +11°C° 0 mm 3 mps 764 mmHg 70%
    11:00 +12°C° 0 mm 3 mps 764 mmHg 64%
    12:00 +13°C° 0 mm 3 mps 763 mmHg 62%
    13:00 +14°C° 0 mm 3 mps 763 mmHg 60%
    14:00 +16°C° 0 mm 3 mps 762 mmHg 57%
    15:00 +14°C° 0 mm 3 mps 762 mmHg 63%
    16:00 +13°C° 0 mm 3 mps 762 mmHg 68%
    17:00 +13°C° 0 mm 2 mps 762 mmHg 73%
    18:00 +12°C° 0 mm 2 mps 762 mmHg 75%
    19:00 +12°C° 0 mm 2 mps 762 mmHg 77%
    20:00 +10°C° 0 mm 2 mps 762 mmHg 78%
    21:00 +10°C° 0 mm 2 mps 761 mmHg 79%
    22:00 +10°C° 0 mm 3 mps 761 mmHg 80%
    23:00 +10°C° 0 mm 3 mps 760 mmHg 80%

    Day after tomorrow, 14 December, Thursday

    Time Temperature Precipitation Wind Pressure Humidity
    00:00 +10°C° 0 mm 3 mps 760 mmHg 81%
    01:00 +10°C° 0 mm 3 mps 760 mmHg 82%
    02:00 +10°C° 0 mm 3 mps 760 mmHg 83%
    03:00 +10°C° 0 mm 3 mps 759 mmHg 83%
    04:00 +10°C° 0 mm 3 mps 759 mmHg 84%
    05:00 +10°C° 0 mm 3 mps 759 mmHg 84%
    06:00 +10°C° 0 mm 3 mps 759 mmHg 85%
    07:00 +10°C° 0 mm 3 mps 759 mmHg 85%
    08:00 +10°C° 0 mm 3 mps 759 mmHg 86%
    09:00 +10°C° 0.1 mm 2 mps 759 mmHg 83%
    10:00 +12°C° 0.1 mm 2 mps 760 mmHg 81%
    11:00 +13°C° 0.1 mm 2 mps 760 mmHg 78%
    12:00 +13°C° 0 mm 2 mps 760 mmHg 74%
    13:00 +14°C° 0 mm 2 mps 759 mmHg 70%
    14:00 +15°C° 0 mm 2 mps 759 mmHg 66%
    15:00 +14°C° 0 mm 2 mps 759 mmHg 68%
    16:00 +13°C° 0 mm 2 mps 760 mmHg 71%
    17:00 +12°C° 0 mm 1 mps 760 mmHg 73%
    18:00 +12°C° 0 mm 1 mps 760 mmHg 75%
    19:00 +11°C° 0 mm 1 mps 760 mmHg 77%
    20:00 +10°C° 0 mm 1 mps 760 mmHg 79%
    21:00 +10°C° 0 mm 1 mps 761 mmHg 81%
    22:00 +10°C° 0 mm 1 mps 761 mmHg 82%
    23:00 +9°C° 0 mm 2 mps 761 mmHg 84%

    15 December, Friday

    Time Temperature Precipitation Wind Pressure Humidity
    00:00 +8°C° 0 mm 2 mps 761 mmHg 86%
    01:00 +8°C° 0 mm 2 mps 761 mmHg 87%
    02:00 +8°C° 0 mm 2 mps 760 mmHg 89%
    03:00 +8°C° 0 mm 2 mps 760 mmHg 89%
    04:00 +8°C° 0 mm 2 mps 760 mmHg 90%
    05:00 +8°C° 0 mm 2 mps 760 mmHg 90%
    06:00 +8°C° 0 mm 3 mps 760 mmHg 90%
    07:00 +7°C° 0 mm 3 mps 760 mmHg 91%
    08:00 +7°C° 0 mm 3 mps 760 mmHg 91%
    09:00 +9°C° 0 mm 3 mps 760 mmHg 85%
    10:00 +11°C° 0 mm 4 mps 760 mmHg 79%
    11:00 +12°C° 0 mm 4 mps 760 mmHg 73%
    12:00 +13°C° 0 mm 4 mps 759 mmHg 69%
    13:00 +14°C° 0 mm 5 mps 759 mmHg 65%
    14:00 +15°C° 0 mm 5 mps 759 mmHg 62%
    15:00 +14°C° 0 mm 5 mps 758 mmHg 65%
    16:00 +13°C° 0 mm 5 mps 758 mmHg 69%
    17:00 +12°C° 0 mm 5 mps 758 mmHg 73%
    18:00 +12°C° 0 mm 5 mps 758 mmHg 75%
    19:00 +11°C° 0 mm 6 mps 758 mmHg 77%
    20:00 +11°C° 0 mm 6 mps 758 mmHg 79%
    21:00 +11°C° 0 mm 6 mps 758 mmHg 81%
    22:00 +11°C° 0 mm 7 mps 758 mmHg 82%
    23:00 +10°C° 0 mm 7 mps 758 mmHg 84%

    16 December, Saturday

    Time Temperature Precipitation Wind Pressure Humidity
    00:00 +11°C° 0 mm 7 mps 757 mmHg 84%
    01:00 +11°C° 0 mm 7 mps 757 mmHg 84%
    02:00 +11°C° 0 mm 7 mps 757 mmHg 84%
    03:00 +11°C° 0 mm 8 mps 757 mmHg 84%
    04:00 +11°C° 0 mm 8 mps 757 mmHg 85%
    05:00 +11°C° 0 mm 8 mps 757 mmHg 85%
    06:00 +11°C° 0 mm 8 mps 757 mmHg 85%
    07:00 +11°C° 0 mm 8 mps 757 mmHg 85%
    08:00 +12°C° 0 mm 8 mps 757 mmHg 85%
    09:00 +12°C° 0 mm 9 mps 757 mmHg 81%
    10:00 +13°C° 0 mm 9 mps 757 mmHg 77%
    11:00 +15°C° 0 mm 9 mps 757 mmHg 74%
    12:00 +16°C° 0 mm 9 mps 757 mmHg 70%
    13:00 +16°C° 0 mm 9 mps 756 mmHg 66%
    14:00 +17°C° 0 mm 9 mps 756 mmHg 63%
    15:00 +16°C° 0 mm 9 mps 756 mmHg 66%
    16:00 +16°C° 0 mm 8 mps 756 mmHg 68%
    17:00 +15°C° 0 mm 8 mps 756 mmHg 71%
    18:00 +15°C° 0.1 mm 8 mps 757 mmHg 73%
    19:00 +15°C° 0.1 mm 8 mps 757 mmHg 74%
    20:00 +14°C° 0.1 mm 7 mps 757 mmHg 75%
    21:00 +14°C° 0 mm 7 mps 757 mmHg 78%
    22:00 +14°C° 0 mm 7 mps 757 mmHg 80%
    23:00 +13°C° 0 mm 8 mps 757 mmHg 82%

    17 December, Sunday

    Time Temperature Precipitation Wind Pressure Humidity
    00:00 +14°C° 0.4 mm 7 mps 757 mmHg 83%
    01:00 +14°C° 0.4 mm 7 mps 756 mmHg 84%
    02:00 +14°C° 0.4 mm 7 mps 756 mmHg 85%
    03:00 +14°C° 1.2 mm 7 mps 756 mmHg 85%
    04:00 +12°C° 1.2 mm 7 mps 755 mmHg 85%
    05:00 +12°C° 1.2 mm 7 mps 755 mmHg 86%
    06:00 +12°C° 0.4 mm 8 mps 754 mmHg 83%
    07:00 +13°C° 0.4 mm 8 mps 754 mmHg 81%
    08:00 +13°C° 0.4 mm 9 mps 754 mmHg 79%
    09:00 +13°C° 0 mm 9 mps 754 mmHg 77%
    10:00 +14°C° 0 mm 10 mps 753 mmHg 75%
    11:00 +14°C° 0 mm 10 mps 753 mmHg 73%
    12:00 +13°C° 0.5 mm 10 mps 753 mmHg 74%
    13:00 +11°C° 0.5 mm 10 mps 753 mmHg 75%
    14:00 +8°C° 0.5 mm 10 mps 753 mmHg 76%
    15:00 +7°C° 0.2 mm 9 mps 755 mmHg 75%
    16:00 +6°C° 0.2 mm 9 mps 756 mmHg 75%
    17:00 +5°C° 0.2 mm 8 mps 757 mmHg 74%
    18:00 +5°C° 0 mm 8 mps 758 mmHg 74%
    19:00 +5°C° 0 mm 7 mps 759 mmHg 75%
    20:00 +4°C° 0 mm 6 mps 761 mmHg 75%
    21:00 +4°C° 0 mm 6 mps 761 mmHg 74%
    22:00 +3°C° 0 mm 6 mps 762 mmHg 74%
    23:00 +3°C° 0 mm 6 mps 763 mmHg 73%
    Show more